Location: Cheyres
(46.8153°N, 6.7877°E)
Time: 01:20:22
(UTC+00:00)

Cosmos 1975 - Pass Details

Date: 11 May 2021
Orbit: 541 x 560 km, 82.5° (Epoch: 23 June)

Event Time Altitude Azimuth Distance (km) Brightness Sun altitude
Rises 22:54:34 0° 347° (NNW) 2,715 7.8 -24.6°
Reaches altitude 10° 22:56:46 10° 344° (NNW) 1,817 6.5 -24.6°
Enters shadow 23:00:09 53° 302° (WNW) 674 3.4 -24.7°
